COSMOS 970 DEB, 65000

Orbit data source: Space-Track

COSMOS 970 DEB, 65000 is space debris in LEO originally from a launch on Wed, 21 Dec 1977 UTC launched from the Tyuratam Missile And Space Complex (TTMTR). Debris objects in space refer to the collection of defunct objects orbiting the Earth. Examples of debris include non-operational satellites, rocket bodies, and fragments generated from explosions, collisions, or faulty payload assembly.

Loading next visibility...
Identifier
65000, 1977-121DM
Orbit
LEO
Country
Flag of CISCIS
Related business
Manufacturer
Unknown
Mission
Spacecraft
Bus & Motor
Unknown
Mass
Unknown
Launch date (UTC)
1977-12-21 (48 years ago)
Launch vehicle
Unknown
Launch site
Tyuratam Missile And Space Complex (TTMTR)
Object type
Payload
Rocket body
Debris
Shape & HBR
Unknown shape, 1.1 m
Radar Cross Section
Medium (>0.1 m² and <1 m²)

Expand to show TLE details & history
Last TLE update: 5 days ago

TLE from 5 days ago
0 COSMOS 970 DEB
1 65000U 77121DM  26166.83531617  .00000456  00000-0  10713-2 0  9993
2 65000  65.9750 321.9215 0122946 222.9100 136.2299 13.30631662603853
Epoch: 2026-06-15T20:02Z
TLE epoch observation values (Epoch: 2026-06-15T20:02:51.317Z)
Latitude
-0.00001°
Longitude
117.09167°
Altitude
1,213.665 km
Speed
7.215 km/s
True Right ascension
21h 27m 41s
True Declination
0° 00' 00"
Sunlit
Object was in daylight at epoch
Visualization orbit readout
Latitude
Unknown
Longitude
Unknown
Altitude
Unknown
Speed
Unknown
Apparent Right ascension
Unknown
Apparent Declination
Unknown
Sunlit
N/A
Visualization observer readout
Local Sidereal Time
07:16:30
Azimuth
Unknown
Elevation
Unknown
Doppler factor
Unknown
Orbital elements
Apogee altitude
1,235.383 km
Perigee altitude
1,050.446 km
Semi-major axis
7,521.052 km
Eccentricity
0.01229
Inclination
65.975°
RAAN
321.9215°
Arg. of periapsis
222.91°
True anomaly
137.19375°
Mean anomaly
136.2299°
Eccentric anomaly
136.71289°
Mean motion
3.32756 °/min
Orbital period
108.19 mins
BSTAR
0.0010713
Loading maneuver chart data...
Computing Atmospheric mass density...
Loading historical data...
Loading historical data...
Loading historical data...
Loading historical data...
Loading historical data...
Loading historical data...
Loading historical data...

Documentation

Showing up to 5 results
|